Weather History for 71628 - December, 2012

Change the Weather History Date:

Sunday, December 30, 2012

  Actual Average Record
Temperature  
Mean Temperature 9 °F -  
Max Temperature 12 °F 21 °F - ()
Min Temperature 6 °F 4 °F - ()
Degree Days  
Heating Degree Days 56    
Moisture  
Dew Point 4 °F    
Average Humidity 77    
Maximum Humidity 85    
Minimum Humidity 59    
Precipitation  
Precipitation 0.03 in 0.08 in - ()
Sea Level Pressure  
Sea Level Pressure 30.00 in    
Wind  
Wind Speed 11 mph ()    
Max Wind Speed 18 mph    
Max Gust Speed 25 mph    
Visibility 11.8 miles    
Events Snow    
T = Trace of Precipitation, MM = Missing Value Source: Averaged Metar Reports

Daily Weather History Graph

Daily Weather History Graph

Search for Another Location

Airport or City:

Trip Planner

Search our weather history database for the weather conditions in past years. The results will help you decide how hot, cold, wet, or windy it might be!

Date:

Astronomy

Dec. 30, 2012 Rise Set
Actual Time 7:42 AM EST 4:29 PM EST
Civil Twilight 7:08 AM EST 5:03 PM EST
Nautical Twilight 6:30 AM EST 5:40 PM EST
Astronomical Twilight 5:54 AM EST 6:16 PM EST
Moon 7:05 PM EST (12/30) 8:43 AM EST (12/30)
Length of Visible Light 9h 54m
Length of Day
8h 47m
Waning Gibbous, 95% of the Moon is Illuminated
Dec 30
Waning Gibbous
Jan 4
Last Quarter
Jan 11
New
Jan 18
First Quarter
Jan 26
Full

Hourly Weather History & Observations

Time (EST) Temp. Windchill Dew Point Humidity Pressure Visibility Wind Dir Wind Speed Gust Speed Precip Events Conditions
12:00 AM 10.4 °F -1.5 °F 6.8 °F 85% 29.79 in 4.0 mi WNW 8.1 mph - N/A Snow Light Snow
12:31 AM 10.4 °F -2.4 °F 6.8 °F 85% 29.79 in 10.0 mi WNW 9.2 mph - N/A Snow Light Snow
1:00 AM 11 °F - 8 °F 79% 29.80 in 7 mi WNW 9.2 mph - - Snow Light Snow
1:00 AM 10.4 °F -3.3 °F 6.8 °F 85% 29.80 in 7.0 mi WNW 10.4 mph - N/A Snow Light Snow
2:00 AM 10.4 °F -2.4 °F 6.8 °F 85% 29.81 in 4.0 mi WNW 9.2 mph - N/A Snow Light Snow
3:00 AM 10.4 °F -3.3 °F 6.8 °F 85% 29.83 in 3.0 mi WNW 10.4 mph - N/A Snow Light Snow
4:00 AM 10.4 °F -5.4 °F 6.8 °F 85% 29.85 in 2.5 mi NW 13.8 mph - N/A Snow Light Snow
5:00 AM 10.4 °F -4.1 °F 5.0 °F 79% 29.86 in 10.0 mi WNW 11.5 mph - N/A   Mostly Cloudy
5:30 AM 8.6 °F -8.3 °F 5.0 °F 85% 29.87 in 4.0 mi WNW 15.0 mph - N/A Snow Light Snow
6:00 AM 8.6 °F -7.0 °F 5.0 °F 85% 29.88 in 10.0 mi WNW 12.7 mph - N/A   Overcast
7:00 AM 8 °F - 3 °F 70% 29.93 in 12 mi WNW 15.0 mph - -   Partly Cloudy
7:00 AM 8.6 °F -8.3 °F 3.2 °F 79% 29.92 in 12.0 mi WNW 15.0 mph - N/A   Mostly Cloudy
8:00 AM 6.8 °F -12.4 °F 1.4 °F 79% 29.96 in 12.0 mi NW 18.4 mph - N/A   Mostly Cloudy
9:00 AM 6.8 °F -10.0 °F 1.4 °F 79% 29.99 in 12.0 mi WNW 13.8 mph - N/A   Scattered Clouds
10:00 AM 6.8 °F -11.8 °F 1.4 °F 79% 30.02 in 15.0 mi WNW 17.3 mph 25.3 mph N/A   Partly Cloudy
11:00 AM 8.6 °F -8.9 °F 1.4 °F 73% 30.05 in 15.0 mi WNW 16.1 mph 25.3 mph N/A   Partly Cloudy
12:00 PM 8.6 °F -7.7 °F 1.4 °F 73% 30.04 in 15.0 mi WNW 13.8 mph 24.2 mph N/A   Clear
1:00 PM 9 °F - 1 °F 59% 30.04 in 15 mi West 17.3 mph - -   Scattered Clouds
1:00 PM 8.6 °F -10.0 °F 1.4 °F 73% 30.04 in 15.0 mi WNW 18.4 mph - N/A   Clear
2:00 PM 10.4 °F -5.4 °F 1.4 °F 67% 30.06 in 15.0 mi West 13.8 mph 19.6 mph N/A   Clear
3:00 PM 10.4 °F -6.0 °F 1.4 °F 67% 30.08 in 15.0 mi West 15.0 mph - N/A   Clear
4:00 PM 8.6 °F -9.5 °F 1.4 °F 73% 30.10 in 15.0 mi West 17.3 mph 25.3 mph N/A   Clear
5:00 PM 8.6 °F -8.9 °F 1.4 °F 73% 30.14 in 15.0 mi West 16.1 mph - N/A   Clear
6:00 PM 8.6 °F -7.0 °F 3.2 °F 79% 30.17 in 15.0 mi West 12.7 mph - N/A   Clear
7:00 PM 10 °F - 4 °F 67% 30.17 in 15 mi West 9.2 mph - -   Partly Cloudy
7:00 PM 10.4 °F -4.1 °F 5.0 °F 79% 30.17 in 15.0 mi West 11.5 mph - N/A   Scattered Clouds
8:00 PM 10.4 °F -2.4 °F 5.0 °F 79% 30.17 in 15.0 mi WSW 9.2 mph - N/A   Mostly Cloudy
9:00 PM 12.2 °F 0.7 °F 6.8 °F 79% 30.16 in 15.0 mi WSW 8.1 mph - N/A   Overcast
9:06 PM 12.2 °F -0.2 °F 6.8 °F 79% 30.16 in 15.0 mi WSW 9.2 mph - N/A Snow Light Snow
10:00 PM 12.2 °F 1.7 °F 6.8 °F 79% 30.15 in 15.0 mi WSW 6.9 mph - N/A Snow Light Snow
11:00 PM 12.2 °F 4.3 °F 6.8 °F 79% 30.15 in 15.0 mi WSW 4.6 mph - N/A Snow Light Snow